Tracking 30995 objects as of 5-Jul-2025
HD Live streaming from Space Station
objects crossing your sky now

COSMOS 2303

Track COSMOS 2303 now!
10-day predictions
COSMOS 2303 is classified as:


NORAD ID: 23445
Int'l Code: 1994-086E
Perigee: 1,420.1 km
Apogee: 1,435.5 km
Inclination: 82.6 °
Period: 114.2 minutes
Semi major axis: 7798 km
RCS: 1.1077 m2 (large)
Launch date: December 26, 1994
Source: Commonwealth of Independent States (former USSR) (CIS)
Launch site: PLESETSK MISSILE AND SPACE COMPLEX (PKMTR)
Your satellite tracking list
Your tracking list is empty




NASA's NSSDC Master Catalog

Two Line Element Set (TLE):
1 23445U 94086E   25186.59077814  .00000029  00000-0  10766-3 0  9992
2 23445  82.5729 206.5536 0009871 270.0637 211.4431 12.60550702404316
Source of the keplerian elements: AFSPC